Flag for U.S.A. Weather past 2 weeks in Farmington, New Mexico, U.S.A.

Now
46 °F

Sunny.


Feels Like: 39 °F
Forecast: 22 / 51 °F
Wind: 16 mph from West

Location: Four Corners Regional Airport

Current Time: Mar 5, 2015 at 5:11:48 PM

Latest Report: Mar 5, 2015 at 3:53 PM


Visibility: 10 mi

Pressure: 30.38 "Hg

Humidity: 29%

Dew point: 15 °F

Location of FarmingtonLocation

Historic Weather in Farmington — Graph

°F

Farmington temperature yesterday

Maximum temperature yesterday: 42 °F (at 1:53 PM)
Minimum temperature yesterday: 28 °F (at 11:53 PM)
Average temperature yesterday: 34 °F

Past Weeks' High & Low Weather Summary

 TemperatureHumidityPressure
High61 °F (Feb 20, 2:53 PM)100% (Feb 23, 9:00 PM)30.49 "Hg (Feb 23, 9:00 PM)
Low18 °F (Mar 5, 6:53 AM)13% (Feb 18, 3:53 PM)29.65 "Hg (Mar 2, 3:53 PM)
Average36 °F70%29.99 "Hg
* Reported Feb 18 3:53 PM — Mar 5 3:53 PM, Farmington, Weather by CustomWeather, © 2015

Note: Actual official high and low records may vary slightly from our data, if they occured in-between our weather recording intervals... More about our weather records

Advertising

Farmington weather history for previous 24 hours

 ConditionsComfort  
Time TempWeatherWind HumidityBarometerVisibility
3:53 PM
Thu, Mar 5
46 °FSunny.16 mph29%30.38 "Hg10 mi
2:53 PM46 °FSunny.12 mph27%30.36 "Hg10 mi
1:53 PM45 °FSunny.13 mph26%30.39 "Hg10 mi
12:53 PM42 °FSunny.5 mph30%30.42 "Hg10 mi
11:53 AM39 °FSunny.7 mph36%30.45 "Hg10 mi
10:53 AM35 °FSunny.5 mph42%30.47 "Hg10 mi
9:53 AM31 °FSunny.3 mph49%30.48 "Hg10 mi
8:53 AM28 °FSunny.5 mph51%30.49 "Hg10 mi
7:53 AM23 °FSunny.6 mph65%30.48 "Hg10 mi
6:53 AM18 °FSunny.6 mph74%30.47 "Hg10 mi
5:53 AM20 °FClear.7 mph71%30.43 "Hg10 mi
4:53 AM20 °FClear.5 mph68%30.40 "Hg10 mi
3:53 AM20 °FClear.3 mph71%30.38 "Hg10 mi
2:53 AM23 °FClear.No wind65%30.36 "Hg10 mi
1:53 AM23 °FClear.5 mph68%30.34 "Hg10 mi
12:53 AM26 °FClear.5 mph60%30.32 "Hg10 mi
11:53 PM
Wed, Mar 4
28 °FClear.7 mph58%30.29 "Hg10 mi
10:53 PM29 °FClear.13 mph58%30.27 "Hg10 mi
9:53 PM31 °FClear.14 mph54%30.26 "Hg10 mi
8:53 PM32 °FClear.14 mph52%30.23 "Hg10 mi
7:53 PM33 °FClear.18 mph49%30.20 "Hg10 mi
6:53 PM34 °FClear.16 mph46%30.17 "Hg10 mi
5:53 PM37 °FSunny.18 mph37%30.11 "Hg10 mi
Weather by CustomWeather, © 2015

See weather overviewHow to use our weather pages